Wind_Speed
21 21 21 21 21 21 21 21 20 20 20 20 21 21 22 22 22 23 24 24 25 25 26 27 28 29 30 31 32 33 34 33 33 33 33 33 32 32 31 31 31 31 30
22 22 22 22 22 22 23 23 23 23 23 23 24 24 25 25 25 26 27 27 27 28 29 29 30 31 33 33 34 35 35 35 35 35 34 33 33 32 32 31 32 31 31
23 23 24 24 24 24 25 25 25 26 26 26 27 27 27 28 28 29 29 30 30 31 31 32 33 34 35 35 36 37 37 37 37 36 35 34 33 33 32 32 32 32 31
24 24 24 25 25 25 25 26 27 28 28 29 30 30 30 31 31 32 32 33 33 34 34 34 35 36 36 37 38 38 38 38 38 37 36 35 34 33 33 33 33 32 31
25 25 26 26 25 26 27 28 29 30 30 31 32 32 33 33 34 35 35 36 36 36 36 37 38 38 39 39 40 40 39 39 39 38 37 36 35 34 34 33 33 32 31
27 27 27 27 27 28 28 29 31 32 33 34 34 34 35 36 37 37 38 39 39 39 39 40 41 41 41 41 41 41 40 39 39 38 37 36 35 35 35 34 33 32 31
29 29 30 30 30 30 31 32 33 34 35 36 36 36 37 38 39 40 40 41 41 42 42 42 42 42 43 42 42 41 41 40 39 39 37 37 36 36 35 35 34 32 31
31 31 32 33 33 33 33 34 35 36 37 38 38 39 39 39 40 41 42 43 44 44 44 43 43 44 44 43 43 42 42 41 39 39 38 37 37 36 35 35 34 33 31
34 34 34 34 34 34 34 36 36 38 38 39 40 41 42 41 41 41 42 43 44 44 44 45 45 45 44 44 44 44 43 42 40 39 39 38 38 37 35 34 33 32 31
35 34 34 35 35 35 36 37 38 39 40 41 43 44 44 45 44 42 41 43 44 45 45 46 46 46 46 45 45 44 43 42 41 40 40 39 38 37 35 34 33 32 31
36 36 36 37 37 38 39 40 40 40 41 42 43 44 44 44 45 45 44 44 45 46 46 46 46 47 46 46 45 44 43 42 41 40 40 39 38 37 36 34 33 32 30
37 37 38 39 40 41 41 41 42 42 43 44 44 45 46 46 47 48 48 47 47 47 47 47 47 47 47 46 45 44 43 42 41 41 40 39 38 37 35 34 33 31 30
40 40 40 41 42 42 43 44 45 45 46 46 47 48 49 49 50 50 50 49 48 48 48 48 48 47 47 45 44 43 42 42 42 41 40 39 38 36 35 34 32 31 30
42 43 44 44 45 45 47 48 48 48 48 49 49 50 50 50 50 50 50 50 49 48 48 48 47 47 47 46 45 44 43 43 42 41 40 38 37 36 34 33 31 30 29
45 46 47 47 47 48 49 49 49 49 49 49 50 50 50 51 50 50 50 50 50 49 48 48 48 47 47 46 45 45 44 43 42 41 39 38 37 35 33 32 31 30 29
46 46 47 48 48 49 50 50 51 51 51 50 51 51 51 51 51 51 51 51 51 50 49 48 47 47 47 46 46 45 44 43 41 40 38 37 36 34 32 31 30 29 28
47 48 48 49 49 49 50 50 51 51 51 52 51 51 52 52 52 51 51 51 50 50 49 48 47 47 47 46 45 44 43 41 40 39 37 36 35 33 31 30 28 28 27
49 49 50 50 50 51 51 52 52 52 51 51 51 51 51 51 51 51 50 50 49 49 48 47 46 46 46 45 43 42 41 39 38 36 35 34 33 31 29 28 28 27 26
50 50 51 51 51 51 51 51 51 51 50 51 51 51 50 50 50 49 49 48 48 47 46 45 44 44 43 42 41 40 38 37 36 34 33 32 30 29 28 28 27 26 26
50 50 50 50 49 49 49 48 48 48 48 48 48 48 48 48 48 48 47 46 46 45 44 44 42 42 41 40 39 38 37 36 34 33 32 30 29 29 28 27 27 26 26
49 48 48 47 47 47 46 46 46 46 46 46 47 47 48 48 47 46 46 45 45 44 43 42 41 40 39 38 37 37 35 34 33 32 30 29 28 28 27 27 27 26 26
46 46 46 46 46 46 46 46 46 45 45 46 46 46 45 45 45 45 44 44 43 42 41 40 39 38 37 36 35 35 33 32 31 30 29 28 27 27 27 27 26 26 26
46 46 45 45 45 45 45 45 45 44 45 45 44 44 44 43 43 42 42 41 41 40 39 38 37 36 35 34 33 33 32 31 30 29 28 28 27 27 27 27 26 26 25
46 45 45 45 45 45 45 45 45 45 45 45 44 44 43 42 41 41 40 39 38 37 36 35 34 34 33 32 32 31 30 30 29 29 28 28 27 27 26 26 26 26 26
46 45 45 45 45 45 45 45 45 45 45 44 44 43 42 41 40 39 37 36 35 34 34 33 32 32 31 30 30 30 29 29 28 28 27 27 26 26 26 26 26 26 26
46 46 46 46 46 45 45 45 45 44 44 43 43 42 41 40 38 37 36 34 33 32 32 31 30 30 29 29 29 29 28 28 28 27 27 26 26 26 26 27 27 27 27
Wind_Direction
244 247 249 251 253 256 259 261 264 266 268 271 273 276 278 280 283 286 289 291 294 296 297 300 302 305 307 309 310 311 312 312 313 312 312 313 313 314 314 314 314 315 314
244 247 250 252 254 257 260 262 264 267 269 272 274 276 278 280 282 285 288 290 292 293 295 297 300 302 304 307 308 309 310 310 310 310 309 310 310 311 312 313 313 313 313
244 248 250 253 255 258 260 263 266 268 270 272 274 276 278 280 283 285 287 289 290 292 293 296 298 301 303 304 305 306 307 307 307 307 307 307 308 309 310 311 311 311 311
244 248 252 255 257 259 262 264 267 269 271 272 274 277 279 281 283 284 286 287 289 290 292 294 297 299 301 302 304 305 305 305 305 305 305 305 305 307 308 308 309 309 308
245 250 254 257 260 262 264 266 268 270 271 273 275 277 279 281 283 284 286 286 287 289 290 292 294 296 298 300 301 302 302 303 302 302 302 303 303 305 306 306 307 307 306
248 252 256 259 262 264 266 268 270 271 272 273 275 276 278 280 282 284 285 286 287 288 289 291 293 295 296 297 299 299 300 300 300 300 300 301 301 303 304 304 305 305 304
251 254 257 260 263 265 267 269 271 272 273 274 275 276 278 280 281 283 284 285 286 288 289 291 292 294 295 296 297 297 298 298 298 298 299 299 300 301 302 302 303 303 301
254 256 259 261 264 266 268 271 272 274 275 276 277 277 277 279 282 284 285 286 287 288 288 290 291 292 294 295 296 296 296 296 296 296 297 297 298 299 300 300 300 299 298
256 257 260 262 264 266 269 272 274 276 277 278 278 279 280 280 280 282 284 286 287 288 288 289 290 292 293 294 294 295 294 294 294 294 295 295 296 297 297 297 297 296 295
256 258 261 263 264 268 272 274 276 277 277 278 279 280 281 282 282 281 283 285 286 286 287 288 290 291 291 292 293 292 291 292 292 291 292 293 294 294 294 295 294 293 291
260 263 264 266 268 271 274 275 276 277 277 277 279 280 281 283 284 285 285 286 287 286 287 288 288 289 290 291 291 290 290 289 289 289 290 291 292 292 292 292 291 289 288
263 266 268 269 270 272 274 275 276 277 277 279 280 281 282 284 286 286 286 287 288 287 287 288 288 289 289 289 289 289 288 288 288 288 289 290 290 290 290 289 288 286 284
264 266 268 270 271 273 275 277 278 279 279 279 281 282 283 284 286 286 286 286 287 287 287 288 288 288 289 289 288 288 287 288 288 288 289 289 289 288 287 287 285 283 280
266 266 269 271 271 273 275 277 279 279 280 281 282 283 284 285 286 286 286 286 286 287 288 288 288 288 288 288 287 287 287 287 287 287 287 287 286 286 285 283 282 280 277
266 268 270 272 273 274 275 276 277 279 281 282 283 284 284 285 285 286 286 286 286 287 288 287 287 286 286 286 286 286 286 287 286 286 285 285 284 284 283 280 279 278 276
268 269 272 273 274 275 277 277 278 280 282 282 283 283 284 285 286 286 287 287 287 287 287 287 286 285 285 285 286 286 286 285 284 284 284 283 283 282 280 278 277 276 274
268 269 271 273 274 275 277 278 280 281 281 282 283 284 285 285 286 287 287 287 287 287 287 287 286 285 285 285 285 285 285 284 283 284 282 281 281 280 278 276 276 274 272
268 270 271 273 275 276 278 280 281 281 282 283 283 284 285 285 286 287 287 287 287 287 287 287 286 286 285 285 285 284 284 284 283 282 280 279 279 277 275 274 274 272 270
269 271 272 274 275 277 278 279 280 281 282 283 284 285 285 286 287 287 286 286 286 286 286 286 286 286 286 285 285 284 283 283 282 280 278 277 276 274 273 273 272 271 269
270 271 273 274 276 277 278 279 280 281 282 283 284 285 285 285 286 286 286 286 286 286 286 286 286 286 285 285 284 283 282 281 280 278 277 275 274 272 272 272 271 270 269
270 270 272 273 275 276 278 279 281 282 282 283 284 285 284 284 285 285 285 285 285 285 285 285 285 285 284 284 283 282 281 279 278 277 275 273 273 272 271 271 271 269 269
268 270 271 273 274 276 277 278 280 281 282 283 284 284 284 284 285 285 285 285 285 284 284 284 284 284 283 283 282 280 278 277 276 274 273 272 271 271 271 271 270 269 268
268 269 271 272 274 275 276 278 279 280 282 283 284 284 285 285 285 285 285 285 284 284 283 283 284 283 283 281 280 278 276 275 274 272 271 270 270 270 270 270 270 269 268
267 269 270 272 273 274 276 277 279 280 281 282 283 284 284 285 285 285 285 285 284 283 283 283 283 283 282 280 279 278 275 273 272 270 270 270 270 270 270 270 269 268 267
267 268 270 271 273 274 276 277 279 280 281 281 282 282 283 283 283 283 283 283 283 282 282 282 282 281 280 279 278 276 274 273 272 271 270 270 270 271 271 270 269 268 269
266 268 269 271 272 274 275 277 278 279 280 281 281 281 281 282 282 281 281 282 282 282 282 281 281 280 279 278 277 275 274 273 272 271 271 271 271 272 272 271 270 270 270
Height
5842 5844 5845 5847 5848 5849 5850 5851 5851 5852 5852 5852 5852 5852 5852 5851 5851 5850 5849 5848 5847 5846 5845 5843 5841 5839 5837 5834 5832 5829 5826 5823 5820 5817 5814 5811 5808 5805 5802 5799 5796 5793 5790
5838 5839 5841 5842 5843 5844 5845 5846 5847 5847 5847 5847 5847 5847 5847 5846 5846 5845 5844 5843 5842 5840 5839 5837 5835 5833 5831 5829 5826 5823 5820 5817 5815 5812 5808 5805 5802 5799 5796 5794 5791 5788 5785
5833 5834 5836 5837 5838 5839 5840 5841 5841 5842 5842 5842 5842 5842 5841 5840 5840 5839 5838 5837 5836 5834 5833 5831 5829 5827 5824 5822 5819 5817 5814 5811 5808 5805 5802 5799 5797 5794 5791 5788 5785 5782 5780
5827 5829 5830 5831 5833 5833 5834 5835 5835 5836 5836 5836 5836 5836 5835 5834 5833 5833 5831 5830 5829 5828 5826 5824 5822 5820 5818 5815 5813 5810 5807 5804 5801 5798 5796 5793 5790 5787 5785 5782 5779 5776 5774
5821 5823 5824 5825 5827 5827 5828 5829 5829 5829 5830 5830 5830 5829 5829 5828 5827 5826 5824 5823 5822 5821 5819 5817 5815 5813 5811 5808 5805 5803 5800 5797 5794 5791 5788 5786 5783 5781 5778 5775 5773 5770 5768
5815 5816 5818 5819 5820 5821 5821 5822 5822 5822 5822 5822 5823 5822 5822 5821 5820 5819 5817 5816 5814 5813 5811 5809 5807 5805 5803 5800 5797 5795 5792 5789 5786 5783 5781 5778 5776 5773 5771 5768 5765 5763 5761
5808 5809 5811 5812 5813 5814 5814 5814 5815 5815 5815 5815 5815 5815 5814 5813 5812 5811 5809 5808 5806 5805 5803 5801 5799 5797 5795 5792 5789 5786 5784 5781 5778 5776 5773 5771 5768 5766 5763 5760 5758 5756 5754
5800 5802 5803 5804 5805 5805 5806 5807 5807 5807 5807 5806 5807 5807 5807 5807 5804 5803 5801 5799 5797 5796 5794 5792 5790 5788 5786 5783 5781 5778 5775 5772 5770 5767 5765 5762 5760 5758 5755 5753 5751 5749 5747
5792 5794 5795 5796 5797 5797 5798 5798 5798 5798 5798 5798 5797 5797 5797 5797 5797 5795 5792 5790 5788 5787 5785 5783 5781 5778 5776 5774 5771 5769 5766 5764 5761 5759 5756 5754 5752 5749 5747 5745 5743 5741 5739
5784 5786 5787 5788 5789 5789 5790 5790 5790 5790 5789 5789 5788 5787 5786 5786 5786 5786 5785 5782 5780 5778 5776 5773 5771 5769 5767 5764 5762 5759 5757 5754 5752 5750 5748 5745 5743 5741 5739 5737 5735 5733 5732
5775 5777 5778 5779 5780 5781 5781 5781 5781 5780 5780 5779 5778 5777 5776 5775 5774 5774 5775 5773 5770 5768 5766 5764 5761 5759 5756 5754 5752 5749 5747 5745 5742 5740 5738 5736 5734 5732 5730 5728 5727 5725 5724
5767 5768 5769 5770 5771 5772 5772 5771 5771 5771 5770 5769 5768 5767 5766 5765 5764 5763 5762 5761 5760 5758 5755 5753 5750 5748 5745 5743 5741 5739 5736 5734 5732 5730 5728 5726 5724 5723 5721 5719 5718 5717 5716
5758 5759 5760 5761 5761 5762 5762 5762 5761 5761 5760 5759 5758 5757 5756 5754 5753 5751 5750 5749 5748 5747 5744 5741 5738 5736 5734 5732 5730 5728 5726 5724 5722 5720 5718 5716 5715 5713 5712 5710 5709 5708 5708
5749 5750 5750 5751 5752 5752 5752 5752 5751 5751 5750 5749 5747 5746 5745 5743 5742 5740 5738 5737 5736 5735 5733 5730 5727 5725 5723 5721 5719 5717 5715 5713 5711 5709 5708 5706 5705 5703 5702 5701 5700 5700 5700
5739 5740 5740 5741 5741 5741 5741 5740 5740 5740 5739 5737 5736 5735 5733 5732 5730 5728 5726 5725 5724 5723 5722 5719 5716 5713 5711 5709 5707 5705 5704 5702 5700 5699 5697 5696 5695 5694 5693 5692 5691 5691 5691
5728 5729 5730 5730 5730 5730 5730 5729 5729 5728 5727 5726 5724 5723 5722 5720 5718 5716 5714 5712 5710 5709 5709 5707 5704 5702 5699 5697 5695 5694 5692 5690 5689 5687 5686 5685 5685 5684 5683 5683 5682 5683 5683
5718 5718 5718 5719 5719 5718 5718 5718 5717 5716 5715 5714 5712 5711 5710 5708 5706 5704 5702 5700 5698 5696 5695 5694 5692 5689 5687 5685 5683 5682 5680 5679 5678 5677 5676 5675 5674 5674 5674 5673 5673 5674 5674
5706 5706 5707 5707 5707 5707 5706 5706 5705 5704 5703 5701 5700 5699 5697 5695 5694 5692 5690 5688 5686 5684 5682 5681 5679 5677 5676 5674 5672 5671 5669 5668 5667 5666 5665 5665 5665 5664 5665 5665 5665 5665 5666
5694 5695 5695 5695 5695 5695 5694 5693 5693 5692 5691 5690 5688 5687 5685 5683 5681 5680 5678 5676 5674 5672 5670 5669 5667 5666 5664 5662 5661 5660 5659 5658 5657 5656 5656 5655 5655 5655 5656 5656 5656 5657 5658
5682 5683 5683 5683 5683 5682 5682 5681 5681 5680 5679 5677 5676 5674 5673 5671 5670 5668 5666 5664 5662 5660 5659 5657 5656 5654 5653 5651 5650 5649 5648 5648 5647 5647 5646 5646 5646 5647 5647 5648 5648 5649 5649
5671 5671 5671 5672 5671 5671 5671 5670 5669 5668 5667 5666 5664 5663 5661 5660 5658 5656 5654 5653 5651 5649 5647 5646 5645 5643 5642 5641 5640 5639 5639 5638 5637 5637 5638 5638 5638 5638 5639 5639 5640 5640 5641
5659 5660 5660 5660 5660 5659 5659 5658 5658 5657 5656 5654 5653 5651 5650 5648 5646 5645 5643 5641 5639 5638 5636 5635 5634 5633 5632 5631 5630 5629 5629 5629 5629 5629 5629 5629 5629 5630 5630 5631 5631 5632 5633
5648 5648 5648 5648 5648 5648 5648 5647 5646 5645 5644 5643 5642 5640 5638 5637 5635 5633 5631 5630 5628 5627 5626 5625 5624 5623 5622 5621 5621 5620 5620 5620 5620 5620 5620 5621 5621 5622 5622 5623 5623 5624 5624
5636 5636 5637 5637 5637 5636 5636 5636 5635 5634 5633 5632 5630 5629 5627 5626 5624 5623 5621 5619 5618 5617 5616 5615 5614 5613 5612 5612 5611 5611 5611 5611 5611 5612 5612 5613 5613 5613 5614 5614 5615 5615 5616
5623 5624 5624 5625 5625 5624 5624 5624 5623 5622 5621 5620 5619 5617 5616 5615 5613 5612 5611 5609 5608 5607 5606 5605 5604 5604 5603 5603 5602 5603 5603 5603 5603 5604 5604 5604 5605 5605 5606 5606 5606 5607 5607
5611 5611 5612 5612 5612 5612 5612 5612 5611 5610 5609 5608 5607 5606 5605 5604 5603 5602 5601 5600 5599 5598 5597 5596 5595 5595 5594 5594 5594 5594 5595 5595 5595 5596 5596 5596 5597 5597 5597 5598 5598 5598 5598